Location: Northam
(31.6525°S, 116.6655°E)
Time: 17:19:33
(UTC+08:00)

Hubble Space Telescope - Pass Details

Date: 17 May 2021
Orbit: 535 x 539 km, 28.5° (Epoch: 17 June)

Event Time Altitude Azimuth Distance (km) Brightness Sun altitude
Rises 19:17:40 0° 289° (WNW) 2,686 5.7 -24.1°
Reaches altitude 10° 19:19:59 10° 294° (WNW) 1,796 4.4 -24.6°
Enters shadow 19:23:18 42° 337° (NNW) 774 1.7 -25.3°
